GFSFLT2_500_spd_000.txt.gz
Wind_Speed
11 9 12 10 9 10 12 13 14 14 17 19 21 22 25 29 30 30 31 30 28 28 27 27 29 29 31 32 32 32 30 30
10 11 11 10 11 13 14 16 17 19 20 21 23 26 30 31 32 32 30 31 32 33 31 32 33 33 33 32 32 31 29 28
9 9 10 11 12 15 18 18 19 19 21 23 26 29 31 33 33 32 30 29 32 33 33 34 35 35 35 33 30 29 29 29
7 8 10 12 15 17 18 18 20 20 21 23 25 27 31 34 34 33 30 35 33 34 35 35 34 32 30 30 30 28 27 28
8 9 11 14 16 18 21 22 22 22 25 25 27 32 33 33 36 35 32 36 36 35 34 33 30 26 25 26 28 29 28 27
7 10 14 18 21 20 24 23 26 27 26 27 33 34 34 33 36 36 37 38 34 30 28 29 27 27 26 27 27 28 29 30
13 18 21 22 22 19 17 20 23 23 24 28 31 32 33 36 36 37 36 36 31 28 27 28 29 30 31 31 31 32 32 33
17 20 23 26 26 27 25 27 25 22 24 26 30 33 35 31 36 37 37 36 34 32 31 33 35 37 37 37 38 39 39 40
21 24 26 30 31 24 26 28 19 22 27 31 28 29 31 36 38 41 40 38 37 35 35 36 39 40 41 42 42 44 45 46
23 25 22 22 23 22 25 25 24 30 35 28 24 36 38 41 44 41 40 38 37 39 41 43 45 48 49 49 50 51 52 54
23 18 19 24 26 37 28 35 34 30 28 28 41 43 43 46 42 42 42 43 45 47 49 51 54 55 56 59 61 62 63 64
23 21 23 29 32 40 45 41 40 34 35 40 43 48 50 49 47 47 50 52 53 55 57 59 61 63 65 67 68 70 71 72
25 25 30 38 47 53 52 51 43 41 42 46 51 49 46 47 49 53 56 58 60 63 66 69 70 72 74 74 75 76 76 75
30 36 42 46 50 52 52 50 48 48 45 44 44 45 46 51 54 58 60 63 66 70 74 76 78 79 80 80 81 80 79 79
37 41 44 46 50 50 44 42 41 42 42 43 43 48 53 57 61 63 65 68 70 75 77 79 83 84 84 85 88 91 92 89
40 42 49 50 49 47 45 42 42 42 43 46 50 54 59 62 62 63 68 74 78 80 83 88 91 94 94 95 96 95 95 95
42 52 52 49 47 45 43 42 44 47 49 52 55 57 59 61 66 71 78 82 85 87 92 95 97 96 94 94 93 93 95 97
48 41 42 43 41 40 42 44 46 47 51 55 59 62 65 71 76 83 88 89 91 93 96 97 96 95 96 94 90 87 83 80
39 43 41 41 42 45 46 48 51 54 58 62 64 67 73 78 82 86 87 90 94 97 98 101 102 101 94 87 81 71 64 65
43 41 42 46 49 50 50 51 53 57 61 64 68 72 77 81 85 89 93 95 99 101 101 101 97 87 81 71 64 65 68 59

GFSFLT2_500_spd_003.txt.gz
Wind_Speed
13 11 11 12 12 12 9 10 13 15 17 19 21 23 25 26 28 29 30 33 33 32 30 31 31 30 31 31 30 29 31 32
10 10 10 12 10 9 11 15 18 19 20 22 25 26 28 28 27 29 32 32 34 32 31 35 33 32 31 32 30 27 26 27
10 10 10 9 10 12 15 17 18 20 22 26 27 28 28 26 29 34 35 33 34 33 36 37 36 34 32 31 31 30 26 25
7 7 9 11 12 15 15 18 20 24 28 29 27 27 30 29 32 36 34 35 35 36 39 40 36 34 32 29 25 25 26 25
9 9 10 11 14 16 18 21 24 27 30 29 29 30 31 34 34 35 33 34 33 35 36 35 32 29 26 26 24 24 24 25
8 8 13 17 18 19 22 27 31 33 36 31 28 31 33 34 33 34 33 31 34 34 33 32 31 28 27 27 28 28 28 27
10 13 14 18 20 22 25 27 30 28 29 27 27 30 30 32 31 33 29 30 34 37 36 34 34 33 33 33 33 33 32 32
12 16 18 21 24 25 30 33 34 34 31 27 22 24 25 31 31 33 34 37 40 40 38 36 35 34 34 36 36 37 38 39
20 20 20 26 22 24 25 31 36 39 27 25 23 32 26 33 30 37 37 40 40 39 38 36 37 39 41 43 45 45 46 46
21 22 23 18 20 20 27 28 26 26 39 31 27 44 50 35 43 39 43 41 42 42 41 41 45 48 49 50 53 54 54 55
22 22 18 19 23 30 26 38 41 44 44 38 35 36 40 45 46 47 43 41 43 45 47 49 51 53 56 59 61 63 64 65
19 20 18 29 33 35 40 45 46 48 50 44 40 43 43 42 42 42 42 45 49 51 53 55 58 62 64 67 69 69 70 71
21 25 34 39 43 44 45 47 52 53 48 40 37 38 39 40 41 44 47 51 55 57 59 62 65 68 72 73 71 71 74 77
29 34 39 40 44 46 51 55 53 49 43 40 39 39 40 43 47 51 56 59 59 60 63 66 70 72 74 77 80 81 83 86
35 41 35 39 44 48 51 47 45 42 41 42 44 46 48 51 56 59 60 58 61 66 70 72 77 80 85 90 93 95 97 98
38 42 43 47 50 48 50 50 47 46 47 48 49 50 52 55 58 60 61 65 70 74 78 82 88 91 95 98 100 105 108 107
36 42 42 44 45 46 44 42 43 45 47 49 51 54 56 59 62 65 70 75 78 82 86 90 93 96 98 101 103 102 101 99
35 39 43 45 48 48 48 49 51 53 54 54 54 57 61 63 67 72 76 79 83 87 91 95 98 100 102 104 100 96 91 84
35 38 42 45 47 48 50 51 51 52 54 57 59 61 64 68 73 77 80 84 89 93 97 98 101 103 101 96 86 77 69 62
35 38 42 45 47 50 51 52 53 55 58 60 62 65 69 73 76 79 83 88 92 95 100 105 104 101 88 76 68 59 54 51

GFSFLT2_500_spd_006.txt.gz
Wind_Speed
13 10 10 10 13 14 13 11 11 10 15 17 19 21 24 25 26 28 28 26 28 32 30 29 24 30 29 29 30 31 31 29
10 11 14 15 15 13 12 12 13 15 18 22 24 24 24 27 29 30 31 30 30 30 30 25 30 33 33 32 32 30 29 29
13 14 12 12 12 12 13 15 17 20 22 23 24 27 27 30 31 33 33 33 32 29 30 32 34 35 34 32 30 29 29 29
12 12 10 11 10 13 15 19 19 21 25 28 30 32 30 32 33 36 34 34 32 31 30 32 34 36 34 31 28 26 27 29
9 8 9 11 13 15 16 17 21 25 29 31 35 37 36 34 35 37 34 34 33 33 31 31 35 36 32 30 28 28 27 28
8 9 12 13 13 14 17 20 24 29 33 35 36 33 36 36 34 36 35 34 34 34 32 33 36 37 35 32 32 32 32 32
10 12 13 13 15 18 22 25 27 30 34 36 36 35 40 36 26 30 34 34 34 36 38 39 39 40 39 37 35 34 33 34
11 11 12 16 20 23 23 24 26 34 35 30 38 37 38 23 29 27 45 40 38 42 40 41 41 40 41 38 38 38 38 40
13 12 15 19 22 23 21 25 35 31 30 31 33 36 44 45 41 52 50 43 42 43 44 40 40 40 44 43 43 45 47 47
13 15 18 22 20 20 29 19 33 34 34 36 36 43 44 45 44 45 46 45 50 45 40 40 40 42 44 47 48 51 53 56
12 17 18 21 22 30 41 40 37 41 41 45 42 39 39 37 39 42 46 46 44 43 42 43 45 47 50 52 54 57 60 63
18 19 21 24 30 38 42 44 45 46 47 44 40 40 39 38 38 41 43 44 45 46 49 52 56 56 57 59 60 63 65 66
17 20 25 30 36 36 37 39 46 48 44 38 35 35 36 39 41 45 47 50 51 54 58 61 61 61 61 64 66 69 71 73
23 28 33 34 37 40 41 45 48 47 45 44 44 45 47 49 50 52 53 55 57 58 58 59 64 68 69 70 73 75 78 81
26 32 30 32 35 38 41 42 43 46 48 49 48 48 49 51 52 53 54 56 58 61 64 67 70 73 76 78 80 84 88 91
23 23 26 31 34 35 38 42 45 47 49 50 52 53 52 52 54 56 59 60 62 66 69 72 74 79 84 88 91 94 98 100
19 22 27 30 33 37 40 44 46 48 50 52 52 53 55 57 57 58 60 64 67 70 73 78 82 86 89 93 97 100 102 105
22 25 29 34 38 42 45 48 51 52 53 55 56 56 57 58 59 61 64 67 71 76 81 85 89 93 95 99 102 105 107 100
25 28 32 37 41 45 47 50 51 51 54 56 58 58 58 59 62 65 69 74 78 83 87 92 94 96 100 105 107 99 83 70
29 31 34 38 41 44 48 50 52 54 57 59 60 61 61 62 65 69 74 78 83 88 91 93 98 103 107 100 81 67 57 51

GFSFLT2_500_spd_009.txt.gz
Wind_Speed
15 17 22 16 12 6 7 7 8 7 9 14 16 20 21 24 26 30 30 32 31 31 29 28 27 24 27 28 27 28 29 30
18 15 18 9 8 7 6 8 8 11 15 18 21 23 25 28 32 36 34 33 31 31 30 29 31 28 28 29 30 31 32 32
8 9 5 6 2 4 7 9 12 15 16 18 20 24 29 31 35 38 38 36 35 33 29 29 32 31 30 33 34 35 35 35
5 3 4 2 4 7 9 12 13 15 18 22 25 28 30 33 36 37 39 36 38 36 35 35 33 34 34 32 35 36 35 35
5 4 4 5 7 9 11 12 15 18 22 25 27 29 30 31 34 40 40 35 40 39 35 36 33 36 36 34 34 35 35 37
4 6 8 9 9 11 13 16 19 24 25 28 32 28 31 31 33 33 39 38 36 32 33 36 38 43 44 41 37 35 36 40
9 10 9 10 11 14 17 22 23 25 28 29 25 22 28 31 35 42 22 34 36 38 42 45 43 44 43 42 41 38 38 38
8 8 9 13 16 17 20 21 20 26 28 24 29 29 34 36 37 37 43 44 44 46 48 49 46 44 43 47 44 44 44 42
7 9 12 15 18 21 22 21 23 26 41 38 38 42 40 45 44 43 44 44 48 49 48 49 49 50 46 45 44 45 45 46
9 12 15 16 17 18 29 24 41 42 38 39 40 40 37 32 33 35 42 44 43 44 46 48 47 47 46 46 48 49 50 51
11 16 18 17 17 21 25 31 35 38 41 44 46 46 45 42 38 38 39 41 41 42 44 46 47 47 51 53 56 58 60 61
17 17 15 15 22 28 32 34 37 38 40 44 46 44 42 42 42 41 44 46 49 51 53 54 54 56 57 56 59 62 64 66
19 18 21 25 30 31 32 31 32 36 39 42 42 41 42 44 47 50 52 52 55 55 55 55 57 58 61 61 60 63 66 69
22 23 25 28 26 26 28 30 32 34 36 38 43 46 49 50 50 51 53 54 55 56 58 58 58 59 63 67 65 64 68 74
25 24 25 22 22 25 28 31 35 38 40 42 44 46 48 51 53 54 54 55 55 56 56 57 59 61 64 68 73 77 80 82
20 17 18 21 24 28 31 35 38 41 45 47 50 51 52 54 56 57 55 54 55 56 57 60 65 69 73 77 81 84 88 92
16 18 21 24 27 30 33 37 41 44 46 48 51 53 55 57 58 58 57 56 58 59 62 67 72 76 80 83 86 90 94 98
19 21 23 27 32 35 38 42 46 49 50 51 54 57 58 58 59 59 59 60 62 66 70 73 78 82 84 88 93 98 102 102
23 25 28 32 36 39 42 46 50 53 53 56 58 59 60 61 62 62 63 64 68 72 77 80 84 87 92 98 102 98 92 83
28 31 34 36 40 42 45 49 52 55 55 58 60 63 62 62 64 64 65 69 73 78 81 84 88 95 98 98 91 84 75 66

GFSFLT2_500_spd_012.txt.gz
Wind_Speed
35 30 21 28 24 14 3 2 3 3 5 7 9 12 15 18 20 23 28 30 31 32 32 31 31 28 26 25 24 26 26 28
31 18 24 15 13 9 5 2 4 5 8 8 9 13 14 18 23 27 28 26 29 31 32 33 33 29 31 32 28 29 30 31
19 12 3 6 11 9 4 3 4 6 9 11 13 16 20 24 27 28 26 25 28 32 32 32 33 34 31 32 33 33 34 37
7 7 13 14 7 4 3 5 5 7 11 16 20 21 22 24 27 29 26 28 29 32 33 31 31 29 32 31 30 37 41 42
9 5 3 2 1 3 5 6 9 12 16 18 21 23 27 27 27 29 29 29 34 34 29 27 32 34 34 37 44 42 44 46
3 4 6 7 5 5 7 9 11 13 14 19 23 26 28 31 33 32 27 31 30 44 42 42 40 40 39 44 46 46 45 42
2 2 4 5 5 8 10 13 12 13 14 19 27 38 27 27 33 33 38 39 40 43 47 46 45 43 49 48 46 46 43 45
3 4 5 8 10 13 14 16 14 17 22 26 34 33 31 32 35 35 32 33 33 35 40 43 41 43 45 47 48 49 47 48
5 7 9 10 12 15 16 22 22 23 28 29 30 33 33 34 35 32 32 30 28 33 43 43 42 40 41 42 44 46 46 48
9 12 12 13 14 16 16 22 27 30 30 30 30 31 34 36 37 37 37 37 37 37 40 41 44 45 45 46 49 47 49 52
12 14 16 16 15 19 22 26 27 26 25 27 30 33 35 38 39 40 42 43 44 44 45 45 46 48 50 51 50 50 51 54
18 18 19 19 19 21 26 24 21 23 26 30 33 37 38 41 41 41 44 47 50 52 53 53 52 51 53 54 54 52 53 56
18 18 19 21 21 24 19 19 21 26 30 33 36 38 39 42 45 48 50 51 53 55 56 56 52 50 50 51 53 54 54 58
22 22 24 24 21 17 19 21 25 29 32 35 38 41 44 46 47 49 51 53 54 56 57 56 52 52 54 54 56 58 62 65
26 24 20 16 17 20 23 27 31 34 35 37 40 42 45 48 50 52 54 55 56 57 57 55 55 55 58 62 65 68 72 77
27 16 16 18 20 24 28 32 35 38 41 43 46 49 51 53 54 57 59 60 59 59 57 56 57 61 64 68 73 77 82 84
17 16 18 21 25 29 33 37 41 44 47 49 51 53 54 56 57 59 60 60 60 60 58 59 62 66 70 74 77 81 86 91
18 20 23 26 30 34 38 41 46 49 51 53 55 56 56 57 58 60 61 60 61 59 60 64 68 71 74 79 85 91 96 98
22 25 29 32 35 39 43 46 49 52 55 57 60 61 61 60 60 62 63 62 59 61 64 69 72 73 78 87 95 96 96 91
28 32 35 37 42 45 49 51 54 56 57 59 60 60 62 61 62 64 63 60 60 64 68 72 75 81 90 96 99 97 89 79

GFSFLT2_500_spd_015.txt.gz
Wind_Speed
34 35 28 40 35 29 19 8 9 7 7 4 4 5 7 12 17 19 23 27 28 26 26 27 27 27 26 25 26 27 27 27
37 28 26 16 22 10 13 12 11 5 2 4 5 11 12 15 18 22 25 28 29 27 28 25 26 23 24 27 29 30 31 29
17 22 19 21 7 9 18 11 6 3 4 6 8 11 15 19 22 25 26 28 27 27 30 30 28 25 22 23 24 28 33 33
5 11 3 14 20 20 14 7 4 3 5 8 12 15 16 20 22 28 26 29 32 30 31 29 28 25 31 32 35 33 36 38
7 19 18 18 12 10 7 6 4 4 7 10 12 16 16 18 26 24 31 29 31 32 31 36 36 33 37 36 35 38 45 46
10 11 12 10 9 5 4 3 4 7 9 12 13 16 24 24 28 26 24 27 27 28 30 31 35 35 37 37 36 36 39 41
5 5 8 8 5 5 3 3 7 7 12 16 19 21 23 22 25 23 25 26 26 28 30 30 31 35 38 39 40 40 40 40
3 5 6 5 4 4 5 4 6 9 15 18 19 20 19 19 21 24 26 28 29 30 31 31 34 37 40 42 44 42 40 41
2 5 5 5 7 10 12 7 11 16 20 18 15 16 19 22 24 27 30 32 32 32 33 34 35 38 41 43 46 47 46 47
3 6 9 9 11 13 13 15 18 20 14 13 16 19 23 26 29 32 34 36 37 39 39 40 41 44 45 47 48 44 44 46
8 11 15 16 17 14 15 18 19 12 13 17 21 24 27 30 33 36 38 40 42 43 45 47 49 49 50 50 51 48 45 47
14 16 19 18 18 18 18 17 13 16 19 23 26 29 33 35 37 39 41 43 45 47 48 50 51 51 52 50 47 47 46 47
16 16 17 17 16 14 11 14 17 21 26 29 31 34 37 40 42 44 47 48 49 50 51 52 52 53 54 51 47 48 50 52
17 19 18 11 8 12 14 18 22 27 31 34 37 41 43 45 47 50 52 52 52 53 54 55 56 56 53 50 49 50 53 57
19 23 15 11 13 16 18 22 26 30 35 38 42 44 46 49 52 55 56 58 58 58 56 56 55 53 52 54 56 59 61 64
20 17 18 16 20 23 27 30 33 36 39 42 45 48 51 54 56 58 59 59 58 57 57 57 53 52 56 60 63 68 71 73
20 11 14 18 23 28 32 36 39 42 45 49 52 54 55 57 59 60 60 57 55 56 58 54 53 56 60 64 67 70 73 77
14 15 19 24 29 32 35 38 42 46 50 53 55 56 58 60 60 59 57 55 55 58 55 53 55 58 65 65 68 75 81 84
19 21 24 28 33 37 41 44 48 51 54 55 56 57 60 60 58 57 55 55 58 56 55 56 59 61 64 64 71 75 79 86
23 26 29 32 36 40 44 47 51 53 55 57 58 59 60 58 57 56 56 58 57 55 58 62 64 64 64 69 73 79 82 92

GFSFLT2_500_spd_018.txt.gz
Wind_Speed
23 29 35 42 33 30 31 28 26 13 13 11 11 13 16 12 12 13 20 24 24 26 26 27 28 28 29 30 27 26 25 27
16 33 38 31 17 22 23 18 14 15 12 9 10 9 8 10 12 22 22 24 23 24 24 28 29 29 25 25 29 24 24 22
25 30 23 16 14 8 15 13 16 14 8 6 5 6 10 15 21 23 21 23 23 21 25 27 27 29 31 24 27 28 33 34
26 25 35 18 15 8 18 17 12 9 8 10 11 14 15 15 18 22 21 23 24 26 26 28 31 33 36 36 32 33 35 37
10 9 5 13 16 19 16 12 8 6 9 11 11 13 13 13 22 21 22 24 21 21 22 23 24 26 26 27 30 32 32 35
8 13 12 16 13 10 9 5 5 5 4 8 11 14 16 17 18 18 16 17 20 22 25 27 30 30 31 32 33 35 36 37
12 13 12 12 12 9 7 7 3 3 4 9 11 14 14 11 11 15 18 22 25 28 31 32 33 34 35 36 37 38 40 41
10 10 10 7 5 3 1 5 2 3 8 13 15 9 9 13 16 20 24 26 28 29 30 32 34 36 37 38 39 41 43 45
7 6 5 3 1 2 2 4 4 11 10 10 7 10 13 17 21 24 26 28 29 31 33 35 36 36 37 39 41 43 46 47
4 2 2 4 6 5 5 4 10 13 9 6 10 13 17 20 24 28 30 32 33 34 36 38 39 39 41 42 44 46 48 48
6 8 8 10 10 9 8 10 12 8 8 11 16 19 22 25 29 33 35 37 39 40 42 43 43 43 45 46 48 50 48 44
10 13 12 13 14 13 11 8 6 8 12 16 20 23 27 31 34 37 40 41 44 46 47 47 48 48 48 48 49 49 45 43
13 11 11 11 10 7 6 7 10 14 19 23 27 30 33 36 39 42 44 47 48 50 50 50 49 49 48 50 48 44 44 47
13 12 11 5 6 8 11 13 17 22 25 29 32 34 38 42 45 48 49 50 52 53 53 51 50 49 50 50 44 42 45 48
14 13 12 4 7 11 15 18 23 27 31 34 37 40 44 47 50 51 54 54 56 57 54 52 51 51 52 47 47 48 51 55
12 13 13 9 11 15 19 24 28 31 35 39 42 45 47 49 53 55 56 57 57 54 53 53 53 55 51 49 51 55 58 61
10 10 12 13 18 22 25 29 33 36 39 42 46 48 51 53 56 57 56 56 54 53 53 54 55 53 53 54 57 60 64 69
7 6 12 16 21 27 32 36 39 42 46 48 51 54 56 57 57 57 57 55 55 56 56 58 56 55 57 61 63 64 71 71
11 13 18 22 27 32 36 40 43 48 51 53 55 57 58 59 57 58 59 55 58 59 60 59 59 62 63 64 66 70 76 72
19 22 24 28 33 36 39 42 47 51 53 54 56 58 58 58 59 61 58 57 60 62 61 61 63 65 66 68 70 76 77 76